DW3089 Kuortane FI current weather conditions

sailwx.info

Wind from 332

Air temperature -1.1° C
Dewpoint -2.4° C

Last reported at 2020-Feb-19 18:05 UTC.
Time now 2020-Feb-19 19:02 UTC

Location: N 62°48' E 023°31'.
View on Google Maps.

See reports from other nearby stations

  
Tides and Currents Weather Stations Pressure Air Temp Water Temp Dewpoint Dewpoint Depression Visibility Wind Speed Wind Dir Waves Ship Positions
date/time (UTC)wind fromknots sea level pressurealtimeterstation pressurevisibilityair tempwater tempwave heightnotes
2020-Feb-19 18:05 332 -1.1
2020-Feb-19 18:00 332 -1.1
2020-Feb-19 17:55 332 -1.1
2020-Feb-19 17:50 333 -1.1
2020-Feb-19 17:45 342 -0.6
2020-Feb-19 17:40 342 -0.6
2020-Feb-19 17:35 342 -0.6
2020-Feb-19 17:30 344 -0.6
2020-Feb-19 17:25 345 -0.6
2020-Feb-19 17:20 345 -0.6
2020-Feb-19 17:15 345 -0.6
2020-Feb-19 17:10 345 -0.6
2020-Feb-19 17:05 345 -0.6
2020-Feb-19 17:00 342 -0.0
2020-Feb-19 16:55 009 0 gusting 2 -0.0
2020-Feb-19 16:50 345 0 gusting 2 -0.0
2020-Feb-19 16:45 351 0 gusting 2 -0.0
2020-Feb-19 16:40 346 0 gusting 3 -0.0
2020-Feb-19 16:35 336 0 gusting 3 -0.0
2020-Feb-19 16:30 344 0.6
2020-Feb-19 16:25 346 0.6
2020-Feb-19 16:20 346 0 gusting 4 0.6
2020-Feb-19 16:15 337 0 gusting 1 0.6
2020-Feb-19 16:10 340 0 gusting 1 0.6
2020-Feb-19 16:05 336 0.6
2020-Feb-19 16:00 336 0.6
2020-Feb-19 15:55 325 0.6
2020-Feb-19 15:50 334 0 gusting 1 0.6
2020-Feb-19 15:45 333 0 gusting 1 0.6
2020-Feb-19 15:40 330 0.6
2020-Feb-19 15:35 318 0.6
2020-Feb-19 15:30 327 0.6
2020-Feb-19 15:25 325 0.6
2020-Feb-19 15:20 325 0.6
2020-Feb-19 15:15 301 0 gusting 4 0.6
2020-Feb-19 15:10 280 0.6
2020-Feb-19 15:05 309 0.6
2020-Feb-19 15:00 307 0.6
2020-Feb-19 14:55 297 0.6
2020-Feb-19 14:50 299 0.6
2020-Feb-19 14:45 315 0.6
2020-Feb-19 14:40 280 0 gusting 4 0.6
2020-Feb-19 14:35 292 0 gusting 3 0.6
2020-Feb-19 14:30 329 0.6
2020-Feb-19 14:25 315 0 gusting 2 0.6
2020-Feb-19 14:20 305 0.6
2020-Feb-19 14:15 297 0 gusting 4 0.6
2020-Feb-19 14:10 304 0 gusting 4 0.6
2020-Feb-19 14:05 330 0.6
2020-Feb-19 14:00 328 0.6
2020-Feb-19 13:55 313 0.6
2020-Feb-19 13:50 332 0.6
2020-Feb-19 13:45 290 1 gusting 5 0.6
2020-Feb-19 13:40 328 0 gusting 6 0.6
2020-Feb-19 13:35 309 0 gusting 8 0.6
2020-Feb-19 13:30 296 0 gusting 8 1.1
2020-Feb-19 13:25 299 0 gusting 6 1.1
2020-Feb-19 13:20 331 1 gusting 6 1.1
2020-Feb-19 13:15 324 0 gusting 3 1.1
2020-Feb-19 13:10 327 0 gusting 6 1.1
2020-Feb-19 13:05 290 0 gusting 6 1.1
2020-Feb-19 13:00 328 0 gusting 2 1.1
2020-Feb-19 12:55 324 0 gusting 3 1.1
2020-Feb-19 12:50 307 0 gusting 4 1.7
2020-Feb-19 12:45 290 1 gusting 6 1.7
2020-Feb-19 12:40 324 2 gusting 6 1.7
2020-Feb-19 12:35 317 0 gusting 4 1.7
2020-Feb-19 12:30 340 1 gusting 4 1.7
2020-Feb-19 12:25 321 0 gusting 4 1.7
2020-Feb-19 12:20 332 1 gusting 4 2.2
2020-Feb-19 12:15 332 0 gusting 1 2.2
2020-Feb-19 12:10 330 0 gusting 1 2.2
2020-Feb-19 12:05 326 0 gusting 0 2.2
2020-Feb-19 12:00 324 2.2
2020-Feb-19 11:55 324 0 gusting 6 2.2
2020-Feb-19 11:50 329 0 gusting 5 2.2
2020-Feb-19 11:45 318 2 gusting 6 2.2
2020-Feb-19 11:40 282 3 gusting 6 2.2
2020-Feb-19 11:35 292 2.2
2020-Feb-19 11:30 288 1 gusting 3 2.2
2020-Feb-19 11:25 309 2.2
2020-Feb-19 11:20 285 0 gusting 3 2.2
2020-Feb-19 11:15 299 2.2
2020-Feb-19 11:10 303 2.2
2020-Feb-19 11:05 298 2.2
2020-Feb-19 11:00 313 2 gusting 5 2.2
2020-Feb-19 10:55 319 1 gusting 3 2.2
2020-Feb-19 10:50 319 2.2
2020-Feb-19 10:45 310 2.2
2020-Feb-19 10:40 319 2.2
2020-Feb-19 10:35 313 2.2
2020-Feb-19 10:30 312 0 gusting 2 2.2
2020-Feb-19 10:25 297 0 gusting 2 2.2
2020-Feb-19 10:20 322 2.2
2020-Feb-19 10:15 309 0 gusting 4 2.2
2020-Feb-19 10:10 282 0 gusting 4 2.2
2020-Feb-19 10:05 274 2.2
2020-Feb-19 10:00 284 0 gusting 3 2.2
2020-Feb-19 09:55 299 0 gusting 4 2.2
2020-Feb-19 09:50 312 1 gusting 4 1.7
2020-Feb-19 09:45 302 1.7
2020-Feb-19 09:40 301 1.7
2020-Feb-19 09:35 293 1.7
2020-Feb-19 09:30 294 1.7
2020-Feb-19 09:25 292 0 gusting 3 1.7
2020-Feb-19 09:20 279 0 gusting 3 1.1
2020-Feb-19 09:15 292 1.1
2020-Feb-19 09:10 282 2 gusting 6 1.1
2020-Feb-19 09:05 336 1.1
2020-Feb-19 09:00 290 0 gusting 2 1.1
2020-Feb-19 08:55 274 1.1
2020-Feb-19 08:50 263 1.1
2020-Feb-19 08:45 287 0.6
2020-Feb-19 08:40 251 0.6
2020-Feb-19 08:35 272 0.6
2020-Feb-19 08:30 272 0.6
2020-Feb-19 08:25 257 0.6
2020-Feb-19 08:20 255 0.6
2020-Feb-19 08:15 259 0 gusting 4 -0.0
2020-Feb-19 08:10 243 1 gusting 3 -0.0
2020-Feb-19 08:05 255 -0.0
2020-Feb-19 08:00 255 -0.0
2020-Feb-19 07:55 261 -0.0
2020-Feb-19 07:50 265 -0.0
2020-Feb-19 07:45 202 -0.0
2020-Feb-19 07:40 253 -0.0
2020-Feb-19 07:35 253 -0.0
2020-Feb-19 07:30 253 -0.6
2020-Feb-19 07:25 253 -0.6
2020-Feb-19 07:20 253 -0.6
2020-Feb-19 07:15 253 -0.6
2020-Feb-19 07:10 253 -0.6
2020-Feb-19 07:05 253 -0.6
2020-Feb-19 07:00 253 -0.6
2020-Feb-19 06:55 244 -0.6
2020-Feb-19 06:50 244 -0.6
2020-Feb-19 06:45 240 -0.6
2020-Feb-19 06:40 253 -0.6
2020-Feb-19 06:35 276 -0.6
2020-Feb-19 06:30 292 -0.6
2020-Feb-19 06:25 280 0 gusting 3 -0.6
2020-Feb-19 06:20 267 0 gusting 5 -0.6
2020-Feb-19 06:15 271 1 gusting 5 -0.6
2020-Feb-19 06:10 235 0 gusting 5 -0.6
2020-Feb-19 06:05 249 0 gusting 1 -0.6
2020-Feb-19 06:00 211 0 gusting 1 -0.6
2020-Feb-19 05:55 218 -0.6
2020-Feb-19 05:50 193 0 gusting 1 -0.6
2020-Feb-19 05:45 182 -0.6
2020-Feb-19 05:40 164 -0.6
2020-Feb-19 05:35 155 -0.6
2020-Feb-19 05:30 156 0 gusting 2 -0.6
2020-Feb-19 05:25 153 0 gusting 1 -0.6
2020-Feb-19 05:20 151 0 gusting 1 -0.6
2020-Feb-19 05:15 165 0 gusting 1 -0.6
2020-Feb-19 05:10 233 -0.6
2020-Feb-19 05:05 261 -0.6
2020-Feb-19 05:00 211 -0.6
2020-Feb-19 04:55 206 0 gusting 2 -0.6
2020-Feb-19 04:50 176 -0.6
2020-Feb-19 04:45 175 0 gusting 1 -0.0
2020-Feb-19 04:40 168 0 gusting 1 -0.0
2020-Feb-19 04:35 172 0 gusting 1 -0.0
2020-Feb-19 04:30 197 0 gusting 2 -0.0
2020-Feb-19 04:25 179 0 gusting 2 -0.0
2020-Feb-19 04:20 274 -0.0
2020-Feb-19 04:15 177 -0.0
2020-Feb-19 04:10 272 -0.0
2020-Feb-19 04:05 159 0 gusting 1 -0.0
2020-Feb-19 04:00 203 -0.0
2020-Feb-19 03:55 247 0 gusting 5 -0.0
2020-Feb-19 03:50 230 0 gusting 2 -0.0
2020-Feb-19 03:45 255 0 gusting 5 0.6
2020-Feb-19 03:40 255 1 gusting 5 0.6
2020-Feb-19 03:35 276 0 gusting 3 0.6
2020-Feb-19 03:30 221 0.6
2020-Feb-19 03:25 220 0.6
2020-Feb-19 03:20 216 0.6
2020-Feb-19 03:15 243 0 gusting 2 0.6
2020-Feb-19 03:10 206 0 gusting 2 0.6
2020-Feb-19 03:05 222 0 gusting 1 0.6
2020-Feb-19 03:00 267 0 gusting 2 0.6
2020-Feb-19 02:55 197 0 gusting 2 0.6
2020-Feb-19 02:50 229 0.6
2020-Feb-19 02:45 289 0 gusting 4 0.6
2020-Feb-19 02:40 193 0.6
2020-Feb-19 02:35 269 0.6
2020-Feb-19 02:30 185 0.6
2020-Feb-19 02:25 172 0 gusting 1 0.6
2020-Feb-19 02:20 292 0.6
2020-Feb-19 02:15 190 0.6
2020-Feb-19 02:10 160 0.6
2020-Feb-19 02:05 151 0 gusting 2 0.6
2020-Feb-19 02:00 156 0.6
2020-Feb-19 01:55 161 0.6
2020-Feb-19 01:50 152 0 gusting 2 0.6
2020-Feb-19 01:45 153 0 gusting 1 1.1
2020-Feb-19 01:40 165 0 gusting 3 1.1
2020-Feb-19 01:35 184 0 gusting 3 1.1
2020-Feb-19 01:30 141 1.1
2020-Feb-19 01:25 160 1.1
2020-Feb-19 01:20 189 1.1
2020-Feb-19 01:15 182 1.1
2020-Feb-19 01:10 186 1.1
2020-Feb-19 01:05 149 1.1
2020-Feb-19 01:00 199 0 gusting 1 1.1
2020-Feb-19 00:55 195 0 gusting 2 1.1
2020-Feb-19 00:50 118 1.1
2020-Feb-19 00:45 159 1.1
2020-Feb-19 00:40 161 1.1
2020-Feb-19 00:35 169 1.1
2020-Feb-19 00:30 183 1.1
2020-Feb-19 00:25 203 0 gusting 2 1.1
2020-Feb-19 00:20 157 1.1
2020-Feb-19 00:15 147 0 gusting 2 1.1
2020-Feb-19 00:10 130 0 gusting 2 1.1
2020-Feb-19 00:05 136 0 gusting 3 1.1
2020-Feb-19 00:00 148 0 gusting 3 1.1
2020-Feb-18 23:55 133 0 gusting 2 1.1
2020-Feb-18 23:50 158 0 gusting 3 1.1
2020-Feb-18 23:45 193 0 gusting 1 1.1
2020-Feb-18 23:40 206 1.1
2020-Feb-18 23:35 263 1.7
2020-Feb-18 23:30 211 0 gusting 1 1.7
2020-Feb-18 23:25 200 1.7
2020-Feb-18 23:20 143 0 gusting 2 1.7
2020-Feb-18 23:15 195 1.7
2020-Feb-18 23:10 167 0 gusting 2 1.7
2020-Feb-18 23:05 213 1.7
2020-Feb-18 23:00 032 1.7
2020-Feb-18 22:55 227 1.7
2020-Feb-18 22:50 151 1.7
2020-Feb-18 22:45 320 1.7
2020-Feb-18 22:40 122 0 gusting 5 1.7
2020-Feb-18 22:35 164 0 gusting 5 1.7
2020-Feb-18 22:30 154 0 gusting 9 1.7
2020-Feb-18 22:25 176 0 gusting 9 1.7
2020-Feb-18 22:20 190 0 gusting 5 2.2
2020-Feb-18 22:15 160 1 gusting 6 2.2
2020-Feb-18 22:10 271 0 gusting 7 2.2
2020-Feb-18 22:05 187 1 gusting 6 2.2
2020-Feb-18 22:00 133 0 gusting 4 2.2
2020-Feb-18 21:55 180 0 gusting 11 2.2
2020-Feb-18 21:50 140 1 gusting 11 2.2
2020-Feb-18 21:45 157 1 gusting 6 2.2
2020-Feb-18 21:40 242 0 gusting 6 2.2
2020-Feb-18 21:35 176 0 gusting 6 2.2
2020-Feb-18 21:30 216 1 gusting 6 2.2
2020-Feb-18 21:25 213 0 gusting 6 2.2
2020-Feb-18 21:20 221 0 gusting 6 2.2
2020-Feb-18 21:15 169 1 gusting 6 2.2
2020-Feb-18 21:10 158 0 gusting 5 2.2
2020-Feb-18 21:05 136 1 gusting 5 2.2
2020-Feb-18 21:00 164 0 gusting 2 2.2
2020-Feb-18 20:55 152 2.2
2020-Feb-18 20:50 213 2.2
2020-Feb-18 20:45 281 0 gusting 5 2.2
2020-Feb-18 20:40 209 0 gusting 6 2.2
2020-Feb-18 20:35 142 1 gusting 6 2.2
2020-Feb-18 20:30 198 0 gusting 3 2.2
2020-Feb-18 20:25 182 0 gusting 1 2.2
2020-Feb-18 20:20 149 0 gusting 3 2.2
2020-Feb-18 20:15 175 0 gusting 6 2.2
2020-Feb-18 20:10 172 0 gusting 6 2.2
2020-Feb-18 20:05 146 2.2
2020-Feb-18 20:00 143 1 gusting 6 2.2
2020-Feb-18 19:55 164 2.2
2020-Feb-18 19:50 147 1 gusting 5 2.2
2020-Feb-18 19:45 243 0 gusting 5 2.2
2020-Feb-18 19:40 247 2 gusting 5 2.2
2020-Feb-18 19:35 145 1 gusting 4 2.2
2020-Feb-18 19:30 199 0 gusting 3 2.2
2020-Feb-18 19:25 202 0 gusting 7 2.2
2020-Feb-18 19:20 188 2 gusting 7 2.2
2020-Feb-18 19:15 146 2 gusting 7 2.2
2020-Feb-18 19:10 170 1 gusting 6 2.2
2020-Feb-18 19:05 154 2 gusting 6 2.2
2020-Feb-18 19:00 160 0 gusting 2 2.2
2020-Feb-18 18:55 179 0 gusting 5 2.2
2020-Feb-18 18:50 167 0 gusting 6 2.2
2020-Feb-18 18:45 188 1 gusting 6 2.2
2020-Feb-18 18:40 142 0 gusting 5 2.2
2020-Feb-18 18:35 164 0 gusting 5 2.2
2020-Feb-18 18:30 182 0 gusting 6 2.2
2020-Feb-18 18:25 207 2 gusting 6 2.2
2020-Feb-18 18:20 197 0 gusting 2 2.2
2020-Feb-18 18:15 151 0 gusting 6 2.2
2020-Feb-18 18:10 230 1 gusting 6 2.2
2020-Feb-18 18:05 159 3 gusting 8 2.8
2020-Feb-18 18:00 159 3 gusting 8 2.8
2020-Feb-18 17:55 178 0 gusting 7 2.8
2020-Feb-18 17:50 182 4 gusting 7 2.8
2020-Feb-18 17:45 181 0 gusting 6 2.8
2020-Feb-18 17:40 160 2 gusting 7 2.8
2020-Feb-18 17:35 159 1 gusting 7 2.8
2020-Feb-18 17:30 174 1 gusting 3 2.8
2020-Feb-18 17:25 164 0 gusting 1 2.8
2020-Feb-18 17:20 132 0 gusting 4 2.8
2020-Feb-18 17:15 176 1 gusting 6 2.8
2020-Feb-18 17:10 161 2 gusting 6 2.8
2020-Feb-18 17:05 247 1 gusting 4 2.8
2020-Feb-18 17:00 169 0 gusting 3 3.3
2020-Feb-18 16:55 128 0 gusting 3 3.3
2020-Feb-18 16:50 211 0 gusting 5 3.3
2020-Feb-18 16:45 157 1 gusting 6 3.3
2020-Feb-18 16:40 184 2 gusting 5 3.3
2020-Feb-18 16:35 209 3 gusting 6 3.3
2020-Feb-18 16:30 153 0 gusting 4 3.3
2020-Feb-18 16:25 155 1 gusting 4 3.3
2020-Feb-18 16:20 143 0 gusting 7 3.3
2020-Feb-18 16:15 149 1 gusting 7 3.3
2020-Feb-18 16:10 157 3.3
2020-Feb-18 16:05 143 3.9
2020-Feb-18 16:00 141 3.9
2020-Feb-18 15:55 199 0 gusting 3 3.9
2020-Feb-18 15:50 175 0 gusting 3 3.9
2020-Feb-18 15:45 186 1 gusting 3 3.9
2020-Feb-18 15:40 183 0 gusting 5 3.9
2020-Feb-18 15:35 142 0 gusting 5 4.4
2020-Feb-18 15:30 204 1 gusting 5 4.4
2020-Feb-18 15:25 176 4.4
2020-Feb-18 15:20 116 0 gusting 2 4.4
2020-Feb-18 15:15 203 4.4
2020-Feb-18 15:10 203 5.0
2020-Feb-18 15:05 252 0 gusting 9 5.0
2020-Feb-18 15:00 253 0 gusting 9 5.0
2020-Feb-18 14:55 287 2 gusting 6 5.0
2020-Feb-18 14:50 156 0 gusting 6 5.0
2020-Feb-18 14:45 305 0 gusting 5 5.0
2020-Feb-18 14:40 306 0 gusting 5 5.0
2020-Feb-18 14:35 291 1 gusting 6 5.6
2020-Feb-18 14:30 276 1 gusting 8 5.6
2020-Feb-18 14:25 301 1 gusting 11 5.6
2020-Feb-18 14:20 255 2 gusting 5 5.6
2020-Feb-18 14:15 167 0 gusting 7 5.6
2020-Feb-18 14:10 293 0 gusting 7 5.6
2020-Feb-18 14:05 263 5.6
2020-Feb-18 14:00 232 1 gusting 7 6.1
2020-Feb-18 13:55 157 0 gusting 7 6.1
2020-Feb-18 13:50 236 6.1
2020-Feb-18 13:45 191 1 gusting 9 6.1
2020-Feb-18 13:40 234 0 gusting 9 6.1
2020-Feb-18 13:35 168 0 gusting 7 6.1
2020-Feb-18 13:30 329 0 gusting 7 6.1
2020-Feb-18 13:25 236 1 gusting 6 6.1
2020-Feb-18 13:20 249 2 gusting 6 6.1
2020-Feb-18 13:15 188 0 gusting 6 6.1
2020-Feb-18 13:10 215 1 gusting 11 6.7
2020-Feb-18 13:05 219 1 gusting 11 6.7
2020-Feb-18 13:00 300 0 gusting 8 6.7
2020-Feb-18 12:55 212 0 gusting 6 6.7
2020-Feb-18 12:50 271 0 gusting 6 6.7
2020-Feb-18 12:45 255 0 gusting 6 6.7
2020-Feb-18 12:40 151 0 gusting 7 6.7
2020-Feb-18 12:35 171 0 gusting 9 6.7
2020-Feb-18 12:30 287 2 gusting 9 6.7
2020-Feb-18 12:25 310 0 gusting 9 6.7
2020-Feb-18 12:20 259 3 gusting 9 6.7
2020-Feb-18 12:15 282 3 gusting 9 6.7
2020-Feb-18 12:10 259 2 gusting 9 6.7
2020-Feb-18 12:05 249 3 gusting 7 6.7
2020-Feb-18 12:00 287 1 gusting 6 6.7
2020-Feb-18 11:55 246 1 gusting 8 6.7
2020-Feb-18 11:50 247 3 gusting 8 6.7
2020-Feb-18 11:45 245 3 gusting 6 7.2
2020-Feb-18 11:40 240 2 gusting 6 7.2
2020-Feb-18 11:35 306 3 gusting 9 7.2
2020-Feb-18 11:30 248 2 gusting 9 7.2
2020-Feb-18 11:25 222 2 gusting 11 7.2
2020-Feb-18 11:20 214 4 gusting 11 7.2
2020-Feb-18 11:15 326 4 gusting 11 7.2
2020-Feb-18 11:10 325 3 gusting 10 7.2
2020-Feb-18 11:05 301 2 gusting 10 6.7
2020-Feb-18 11:00 259 4 gusting 8 6.7
2020-Feb-18 10:55 246 1 gusting 6 6.7
2020-Feb-18 10:50 268 2 gusting 9 6.7
2020-Feb-18 10:45 273 4 gusting 11 6.7
2020-Feb-18 10:40 193 1 gusting 7 6.7
2020-Feb-18 10:35 282 1 gusting 7 6.7
2020-Feb-18 10:30 307 4 gusting 11 6.7
2020-Feb-18 10:25 354 1 gusting 13 6.7
2020-Feb-18 10:20 243 5 gusting 13 6.7
2020-Feb-18 10:15 261 2 gusting 12 6.7
2020-Feb-18 10:10 257 1 gusting 12 6.1
2020-Feb-18 10:05 234 3 gusting 8 6.1
2020-Feb-18 10:00 249 3 gusting 8 6.1
2020-Feb-18 09:55 290 0 gusting 8 6.1
2020-Feb-18 09:50 197 2 gusting 8 6.1
2020-Feb-18 09:45 220 0 gusting 8 5.6
2020-Feb-18 09:40 213 0 gusting 6 5.6
2020-Feb-18 09:35 294 1 gusting 8 5.6
2020-Feb-18 09:30 255 2 gusting 9 5.0
2020-Feb-18 09:25 279 3 gusting 9 5.0
2020-Feb-18 09:20 241 4 gusting 8 5.0
2020-Feb-18 09:15 258 2 gusting 9 5.0
2020-Feb-18 09:10 287 2 gusting 9 4.4
2020-Feb-18 09:05 334 4 gusting 11 4.4
2020-Feb-18 09:00 225 5 gusting 11 4.4
2020-Feb-18 08:55 245 4 gusting 9 4.4
2020-Feb-18 08:50 286 3 gusting 8 4.4
2020-Feb-18 08:45 264 4 gusting 8 4.4
2020-Feb-18 08:40 289 4 gusting 8 4.4
2020-Feb-18 08:35 270 2 gusting 8 4.4
2020-Feb-18 08:30 323 3 gusting 7 4.4
2020-Feb-18 08:25 257 4 gusting 8 4.4
2020-Feb-18 08:20 245 5 gusting 9 4.4
2020-Feb-18 08:15 197 3 gusting 8 4.4
2020-Feb-18 08:10 219 4 gusting 9 4.4
2020-Feb-18 08:05 268 5 gusting 9 4.4
2020-Feb-18 08:00 317 2 gusting 8 4.4
2020-Feb-18 07:55 266 1 gusting 7 3.9
2020-Feb-18 07:50 244 3 gusting 7 3.9
2020-Feb-18 07:45 272 2 gusting 8 3.9
2020-Feb-18 07:40 227 4 gusting 8 3.9
2020-Feb-18 07:35 263 3 gusting 9 3.9
2020-Feb-18 07:30 260 3 gusting 7 3.9
2020-Feb-18 07:25 224 2 gusting 6 3.3
2020-Feb-18 07:20 286 3 gusting 7 3.3
2020-Feb-18 07:15 256 3 gusting 9 3.3
2020-Feb-18 07:10 281 4 gusting 10 3.3
2020-Feb-18 07:05 263 4 gusting 10 3.3
2020-Feb-18 07:00 278 2 gusting 6 3.3
2020-Feb-18 06:55 264 2 gusting 8 3.3
2020-Feb-18 06:50 224 4 gusting 8 3.3
2020-Feb-18 06:45 268 0 gusting 5 3.3
2020-Feb-18 06:40 259 2 gusting 9 3.9
2020-Feb-18 06:35 222 3 gusting 11 3.9
2020-Feb-18 06:30 243 3 gusting 11 3.9
2020-Feb-18 06:25 185 3 gusting 9 3.9
2020-Feb-18 06:20 271 5 gusting 9 3.9
2020-Feb-18 06:15 276 2 gusting 9 3.9
2020-Feb-18 06:10 260 5 gusting 12 3.9
2020-Feb-18 06:05 269 6 gusting 13 3.9
2020-Feb-18 06:00 299 6 gusting 15 3.9
2020-Feb-18 05:55 262 7 gusting 15 3.9
2020-Feb-18 05:50 257 6 gusting 15 3.9
2020-Feb-18 05:45 249 6 gusting 15 3.9
2020-Feb-18 05:40 277 7 gusting 14 3.9
2020-Feb-18 05:35 281 6 gusting 12 4.4
2020-Feb-18 05:30 267 6 gusting 11 4.4
2020-Feb-18 05:25 285 6 gusting 10 4.4
2020-Feb-18 05:20 301 5 gusting 11 4.4
2020-Feb-18 05:15 251 6 gusting 13 4.4
2020-Feb-18 05:10 309 6 gusting 13 4.4
2020-Feb-18 05:05 258 6 gusting 13 4.4
2020-Feb-18 05:00 255 6 gusting 14 4.4
2020-Feb-18 04:55 237 8 gusting 14 4.4
2020-Feb-18 04:50 254 6 gusting 13 4.4
2020-Feb-18 04:45 234 6 gusting 13 4.4
2020-Feb-18 04:40 267 5 gusting 12 4.4
2020-Feb-18 04:35 247 6 gusting 13 4.4
2020-Feb-18 04:30 259 5 gusting 12 4.4
2020-Feb-18 04:25 308 7 gusting 16 4.4
2020-Feb-18 04:20 262 9 gusting 16 4.4
2020-Feb-18 04:15 270 8 gusting 13 4.4
2020-Feb-18 04:10 252 7 gusting 13 4.4
2020-Feb-18 04:05 311 4 gusting 18 4.4
2020-Feb-18 04:00 249 8 gusting 19 4.4
2020-Feb-18 03:55 255 6 gusting 13 4.4
2020-Feb-18 03:50 282 6 gusting 10 4.4
2020-Feb-18 03:45 299 5 gusting 12 4.4
2020-Feb-18 03:40 273 6 gusting 19 4.4
2020-Feb-18 03:35 285 9 gusting 19 4.4
2020-Feb-18 03:30 270 6 gusting 14 4.4
2020-Feb-18 03:25 255 7 gusting 14 4.4
2020-Feb-18 03:20 246 8 gusting 14 4.4
2020-Feb-18 03:15 263 10 gusting 14 4.4
2020-Feb-18 03:10 262 6 gusting 13 4.4
2020-Feb-18 03:05 304 7 gusting 15 4.4
2020-Feb-18 03:00 220 5 gusting 15 4.4
2020-Feb-18 02:55 253 5 gusting 11 4.4
2020-Feb-18 02:50 304 6 gusting 13 4.4
2020-Feb-18 02:45 296 6 gusting 11 4.4
2020-Feb-18 02:40 281 3 gusting 8 4.4
2020-Feb-18 02:35 279 2 gusting 8 4.4
2020-Feb-18 02:30 285 3 gusting 8 4.4
2020-Feb-18 02:25 264 4 gusting 9 4.4
2020-Feb-18 02:20 197 4 gusting 9 4.4
2020-Feb-18 02:15 182 2 gusting 9 4.4
2020-Feb-18 02:10 234 3 gusting 7 4.4
2020-Feb-18 02:05 155 2 gusting 8 4.4
2020-Feb-18 02:00 151 2 gusting 10 4.4
2020-Feb-18 01:55 152 3 gusting 9 4.4
2020-Feb-18 01:50 191 3 gusting 9 4.4
2020-Feb-18 01:45 128 5 gusting 11 4.4
2020-Feb-18 01:40 142 3 gusting 11 4.4
2020-Feb-18 01:35 191 3 gusting 8 4.4
2020-Feb-18 01:30 180 4 gusting 10 4.4
2020-Feb-18 01:25 157 5 gusting 10 4.4
2020-Feb-18 01:20 175 4 gusting 10 4.4
2020-Feb-18 01:15 153 6 gusting 13 4.4
2020-Feb-18 01:10 145 6 gusting 13 4.4
2020-Feb-18 01:05 170 5 gusting 10 4.4
2020-Feb-18 01:00 210 4 gusting 13 4.4
2020-Feb-18 00:55 301 3 gusting 14 4.4
2020-Feb-18 00:50 237 6 gusting 14 4.4
2020-Feb-18 00:45 109 6 gusting 13 4.4
2020-Feb-18 00:40 151 6 gusting 13 4.4
2020-Feb-18 00:35 181 5 gusting 14 4.4
2020-Feb-18 00:30 177 6 gusting 14 4.4
2020-Feb-18 00:25 174 5 gusting 13 4.4
2020-Feb-18 00:20 176 6 gusting 12 4.4
2020-Feb-18 00:15 177 5 gusting 15 4.4
2020-Feb-18 00:10 278 6 gusting 15 4.4
2020-Feb-18 00:05 213 6 gusting 12 4.4
2020-Feb-18 00:00 181 4 gusting 12 4.4
2020-Feb-17 23:55 151 5 gusting 13 4.4
2020-Feb-17 23:50 178 5 gusting 13 4.4
2020-Feb-17 23:45 159 5 gusting 12 4.4
2020-Feb-17 23:40 203 4 gusting 12 4.4
2020-Feb-17 23:35 163 6 gusting 13 4.4
2020-Feb-17 23:30 158 5 gusting 13 4.4
2020-Feb-17 23:25 191 4 gusting 9 4.4
2020-Feb-17 23:20 190 6 gusting 14 4.4
2020-Feb-17 23:15 161 3 gusting 14 4.4
2020-Feb-17 23:10 168 6 gusting 13 4.4
2020-Feb-17 23:05 164 6 gusting 11 4.4
2020-Feb-17 23:00 155 6 gusting 10 4.4
2020-Feb-17 22:55 183 5 gusting 10 4.4
2020-Feb-17 22:45 183 4 gusting 14 4.4
2020-Feb-17 22:40 274 6 gusting 14 4.4
2020-Feb-17 22:35 163 6 gusting 13 4.4
2020-Feb-17 22:30 154 6 gusting 13 4.4
2020-Feb-17 22:25 130 6 gusting 11 4.4
2020-Feb-17 22:20 174 6 gusting 13 4.4
2020-Feb-17 22:15 188 4 gusting 13 4.4
2020-Feb-17 22:10 222 5 gusting 13 4.4
2020-Feb-17 22:05 134 5 gusting 13 4.4
2020-Feb-17 22:00 134 6 gusting 13 4.4
2020-Feb-17 21:55 162 6 gusting 13 4.4
2020-Feb-17 21:50 164 6 gusting 13 4.4
2020-Feb-17 21:45 192 6 gusting 14 4.4
2020-Feb-17 21:40 203 6 gusting 12 4.4
2020-Feb-17 21:35 186 5 gusting 10 4.4
2020-Feb-17 21:30 189 5 gusting 9 4.4
2020-Feb-17 21:25 163 5 gusting 12 4.4
2020-Feb-17 21:20 164 6 gusting 13 4.4
2020-Feb-17 21:15 199 5 gusting 18 4.4
2020-Feb-17 21:10 147 6 gusting 18 4.4
2020-Feb-17 21:05 193 5 gusting 13 4.4
2020-Feb-17 21:00 166 6 gusting 13 4.4
2020-Feb-17 20:55 195 6 gusting 11 4.4
2020-Feb-17 20:50 172 4 gusting 11 4.4
2020-Feb-17 20:45 234 5 gusting 11 5.0
2020-Feb-17 20:40 159 5 gusting 10 5.0
2020-Feb-17 20:35 216 3 gusting 10 5.0
2020-Feb-17 20:30 179 5 gusting 9 5.0
2020-Feb-17 20:25 315 2 gusting 8 5.0
2020-Feb-17 20:20 176 4 gusting 9 5.0
2020-Feb-17 20:15 162 5 gusting 9 5.0
2020-Feb-17 20:10 195 5 gusting 7 5.0
2020-Feb-17 20:05 135 4 gusting 7 5.0
2020-Feb-17 20:00 144 2 gusting 7 5.0
2020-Feb-17 19:55 248 4 gusting 9 5.0
2020-Feb-17 19:50 216 4 gusting 9 5.0
2020-Feb-17 19:45 184 3 gusting 8 5.0
2020-Feb-17 19:40 158 2 gusting 8 5.0
2020-Feb-17 19:35 137 2 gusting 8 5.0
2020-Feb-17 19:30 186 2 gusting 10 5.0
2020-Feb-17 19:25 154 3 gusting 11 5.0
2020-Feb-17 19:20 203 3 gusting 12 5.0
2020-Feb-17 19:15 205 2 gusting 12 5.0
2020-Feb-17 19:10 171 2 gusting 10 5.0
2020-Feb-17 19:05 157 4 gusting 10 5.0
2020-Feb-17 19:00 182 2 gusting 10 5.0